{"data":{"norad_id":66472,"intl_designator":"2025-262S","name":"STARLINK-35567","alt_names":[],"object_type":"PAYLOAD","status":"ACTIVE","operator":null,"country":"US","launch_date":"2025-11-15","launch_site_code":"AFETR","launch_vehicle":null,"mission":null,"orbit_class":"UNKNOWN","rcs_meters":null,"size_class":null,"mass_kg":null,"dimensions":null,"purposes":["comms"],"wikipedia_slug":null,"has_3d_model":false,"image_url":null,"decayed_at":null,"tle_current":{"epoch":"2026-09-20T07:21:01.469664Z","epoch_age_seconds":106060,"freshness":"FRESH","line1":"1 66472U 25262S   26263.30626701  .00009579  00000+0  35724-3 0  9999","line2":"2 66472  43.0021 276.8057 0001261 252.4049 107.6665 15.27571476 48679","mean_motion":15.27571476,"eccentricity":0.0001261,"inclination_deg":43.0021,"raan_deg":276.8057,"arg_perigee_deg":252.4049,"mean_anomaly_deg":107.6665,"bstar":0.00035724,"rev_number":4867,"period_min":94.267274731438,"perigee_km":482.20942129554,"apogee_km":483.93981886613,"semimajor_km":6861.2116200808,"source":"CELESTRAK","updated_at":"2026-09-21T09:00:35.915760Z"}}}